This demonstration page uses our WeatherBlox Daily Observations layout. Learn more.

Left ArrowRight Arrow

Hourly Observations for October 17, 2020

Temp ( °F °C ) Dew Point ( °F °C ) Humidity (%) Winds ( mph kmh ) Pressure ( in mb ) Visibility ( mi km ) Precip ( " mm )
12:53 am 00:53 Clear 54 12.2 29 -1.7 38 38 S 14 22 29.79 1009 10 16 0.00 0.00
1:53 am 01:53 Clear 53 11.7 28 -2.2 38 38 S 12 19 29.75 1008 10 16 0.00 0.00
2:53 am 02:53 Clear 53 11.7 27 -2.8 37 37 SSW 15 24 29.73 1007 10 16 0.00 0.00
3:53 am 03:53 Clear 53 11.7 27 -2.8 37 37 SSW 16 26 29.72 1006 10 16 0.00 0.00
4:53 am 04:53 Clear 53 11.7 26 -3.3 35 35 SSW 17 28 29.71 1006 10 16 0.00 0.00
5:53 am 05:53 Clear 53 11.7 26 -3.3 35 35 SSW 14 22 29.72 1007 10 16 0.00 0.00
6:53 am 06:53 Clear 51 10.6 27 -2.8 39 39 S 8 13 29.74 1007 10 16 0.00 0.00
7:53 am 07:53 Sunny 48 8.9 27 -2.8 44 44 SSW 7 11 29.76 1008 10 16 0.00 0.00
8:53 am 08:53 Sunny 48 8.9 27 -2.8 44 44 SW 5 7 29.78 1008 10 16 0.00 0.00
9:53 am 09:53 Sunny 49 9.4 28 -2.2 44 44 WSW 6 9 29.80 1009 10 16 0.00 0.00
10:53 am 10:53 Sunny 54 12.2 30 -1.1 40 40 W 3 6 29.81 1010 10 16 0.00 0.00
11:53 am 11:53 Sunny 63 17.2 35 1.7 35 35 N 7 11 29.80 1009 10 16 0.00 0.00
12:53 pm 12:53 Sunny 67 19.4 40 4.4 37 37 NNE 13 20 29.80 1009 10 16 0.00 0.00
1:53 pm 13:53 Sunny 68 20 40 4.4 36 36 NNE 10 17 29.80 1009 10 16 0.00 0.00
2:53 pm 14:53 Sunny 70 21.1 41 5 35 35 NNE 8 13 29.79 1009 10 16 0.00 0.00
3:53 pm 15:53 Mostly Sunny 68 20 42 5.6 39 39 NNE 16 26 29.80 1009 10 16 0.00 0.00
4:53 pm 16:53 Sunny 67 19.4 42 5.6 41 41 N 17 28 29.82 1010 10 16 0.00 0.00
5:53 pm 17:53 Sunny 65 18.3 42 5.6 43 43 N 15 24 29.85 1011 10 16 0.00 0.00
6:53 pm 18:53 Clear 57 13.9 39 3.9 51 51 NNE 21 33 29.90 1013 10 16 0.00 0.00
7:53 pm 19:53 Mostly Clear 52 11.1 35 1.7 53 53 NNE 14 22 29.96 1014 10 16 0.00 0.00
8:53 pm 20:53 Mostly Clear 49 9.4 32 0 52 52 NNE 20 31 30.00 1016 10 16 0.00 0.00
9:53 pm 21:53 Partly Cloudy 46 7.8 33 0.6 61 61 NNE 18 30 30.01 1016 10 16 0.00 0.00
10:53 pm 22:53 Clear 43 6.1 33 0.6 68 68 NNE 21 33 30.04 1017 10 16 0.00 0.00
11:53 pm 23:53 Clear 41 5 33 0.6 73 73 NNE 17 28 30.08 1019 10 16 0.00 0.00

Powered by AerisWeather